OE5XCL Weather Reports


time (UTC)temp
F
wind
direction
speed
knots
gust
knots
rain 1hr
in
rain 24hr
in
rain mn
in
humidity
%
barometer
mb
20260502181521 0 124 0.0 1.7 0.00 0.00 0.00 1016.9
20260502163050 0 100 3.5 7.8 0.00 0.00 0.00 1017.2
20260502161546 0 98 1.7 8.7 0.00 0.00 0.00 1017.4
20260502151528 0 76 3.5 7.8 0.00 0.00 0.00 1018.2
20260502123039 0 101 4.3 11.3 0.00 0.00 0.00 1020.2
20260502121535 0 95 7.8 11.3 0.00 0.00 0.00 1020.4
20260502114530 0 113 4.3 11.3 0.00 0.00 0.00 1020.7
20260502113022 0 94 8.7 13.0 0.00 0.00 0.00 1021.0
20260502111522 0 135 3.5 8.7 0.00 0.00 0.00 1021.1
20260502110113 0 84 4.3 10.4 0.00 0.00 0.00 1021.3
20260502104508 0 57 7.8 12.2 0.00 0.00 0.00 1021.5
20260502103004 0 80 7.8 12.2 0.00 0.00 0.00 1021.7
20260502101621 0 85 6.1 13.0 0.00 0.00 0.00 1021.9
20260502100113 0 136 6.1 14.8 0.00 0.00 0.00 1022.1
20260502071506 0 96 4.3 7.0 0.00 0.00 0.00 1023.8
20260502070002 0 77 1.7 6.1 0.00 0.00 0.00 1023.8
20260502064600 0 106 4.3 7.8 0.00 0.00 0.00 1023.8
20260502063057 0 83 0.0 3.5 0.00 0.00 0.00 1024.0
20260502061548 0 93 3.5 6.1 0.00 0.00 0.00 1024.0
20260502060043 0 101 0.9 2.6 0.00 0.00 0.00 1024.1
20260502054541 0 116 0.0 0.9 0.00 0.00 0.00 1024.2
20260502053041 0 117 0.0 0.0 0.00 0.00 0.00 1024.3
20260502051530 0 117 0.0 0.0 0.00 0.00 0.00 1024.3
20260502050026 0 117 0.0 0.0 0.00 0.00 0.00 1024.3
20260502044522 0 117 0.0 0.0 0.00 0.00 0.00 1024.2
20260502043021 0 117 0.0 0.0 0.00 0.00 0.00 1024.3
20260502041513 0 117 0.0 0.0 0.00 0.00 0.00 1024.2
20260502040012 0 117 0.0 0.0 0.00 0.00 0.00 1024.2
20260502034504 0 117 0.0 0.0 0.00 0.00 0.00 1024.1
20260502033059 0 117 0.0 0.0 0.00 0.00 0.00 1024.1
20260502031557 0 117 0.0 0.0 0.00 0.00 0.00 1024.1
20260502030050 0 117 0.0 0.0 0.00 0.00 0.00 1024.2
20260502024547 0 117 0.0 0.0 0.00 0.00 0.00 1024.2
20260502023044 0 117 0.0 0.0 0.00 0.00 0.00 1024.2
20260502021540 0 117 0.0 0.0 0.00 0.00 0.00 1024.3
20260502020034 0 117 0.0 0.0 0.00 0.00 0.00 1024.3
20260502014533 0 117 0.0 0.0 0.00 0.00 0.00 1024.3
20260502013026 0 117 0.0 0.0 0.00 0.00 0.00 1024.5
20260502011541 0 117 0.0 0.0 0.00 0.00 0.00 1024.5
20260502010019 0 117 0.0 0.0 0.00 0.00 0.00 1024.7
20260502004513 0 117 0.0 0.0 0.00 0.00 0.00 1024.7
20260502003008 0 117 0.0 0.0 0.00 0.00 0.00 1024.7
20260502001508 0 117 0.0 0.0 0.00 0.00 0.00 1024.8
20260502000115 0 117 0.0 0.0 0.00 0.00 0.00 1024.8
20260501234555 0 117 0.0 0.0 0.00 0.00 0.00 1025.0
20260501233051 0 117 0.0 0.0 0.00 0.00 0.00 1025.1
20260501231552 0 117 0.0 0.0 0.00 0.00 0.00 1025.2
20260501230045 0 117 0.0 0.0 0.00 0.00 0.00 1025.2
20260501224537 0 117 0.0 0.0 0.00 0.00 0.00 1025.2
20260501223032 0 117 0.0 0.0 0.00 0.00 0.00 1025.2
20260501221527 0 117 0.0 0.0 0.00 0.00 0.00 1025.2
20260501220036 0 117 0.0 0.0 0.00 0.00 0.00 1025.2
20260501214524 0 117 0.0 0.0 0.00 0.00 0.00 1025.2
20260501213029 0 117 0.0 0.0 0.00 0.00 0.00 1025.1
20260501211522 0 117 0.0 0.0 0.00 0.00 0.00 1025.1
20260501210021 0 117 0.0 0.0 0.00 0.00 0.00 1025.1
20260501204522 0 117 0.0 0.0 0.00 0.00 0.00 1025.1
20260501203023 0 117 0.0 0.0 0.00 0.00 0.00 1025.1
20260501201520 0 116 0.0 2.6 0.00 0.00 0.00 1025.2
20260501200019 0 131 0.0 0.0 0.00 0.00 0.00 1025.1
20260501194519 0 131 0.0 0.0 0.00 0.00 0.00 1025.0
20260501193032 0 131 0.0 0.0 0.00 0.00 0.00 1025.0
20260501191528 0 131 0.0 0.0 0.00 0.00 0.00 1025.0
20260501190043 0 131 0.0 0.0 0.00 0.00 0.00 1025.0
20260501184531 0 131 0.0 0.0 0.00 0.00 0.00 1024.8
20260501183021 0 131 0.0 0.0 0.00 0.00 0.00 1024.7